Regional Weather Roundup
Issued by NWS

Home | Current Version | Previous Version | Text Only | Print | Product List | Glossary Off
Versions: 1 2 3 4 5 6 7 8 9 10 11 12 13 14 15 16 17 18 19 20 21 22 23 24 25 26 27 28 29 30 31 32 33 34 35 36 37 38 39 40 41 42 43 44 45 46 47 48 49 50

000
ASUS43 KDMX 190407
RWRIA

WEATHER ROUNDUP FOR IOWA
NATIONAL WEATHER SERVICE DES MOINES IA
1100 PM CDT SAT APR 18 2015

NOTE: "FAIR" INDICATES FEW OR NO CLOUDS BELOW 12,000 FEET WITH NO
SIGNIFICANT WEATHER AND/OR OBSTRUCTIONS TO VISIBILITY.

* - THESE STATIONS ARE NOT NWS STATIONS...THUS NOT UNDER NWS
QUALITY CONTROL.  THEY ALSO DO NOT REPORT WEATHER SUCH
AS PRECIPITATION OR FOG.

IAZ001>003-012>014-020>022-031>034-043>046-190500-
   NORTHWEST IOWA

CITY           SKY/WX    TMP DP  RH WIND       PRES   REMARKS
CARROLL *      CLOUDY    57  57 100 S5        29.82F FOG
CHEROKEE *     DRIZZLE   55  55 100 E5        29.82F
DENISON *      CLOUDY    57  57 100 NE5       29.80F
LE MARS *      CLOUDY    57  57 100 SE6       29.82F
ORANGE CITY *  CLEAR    N/A N/A N/A SE3       29.82F
SHELDON *      CLOUDY    55  55 100 SE10G16   29.81F FOG
SIOUX CITY     MOCLDY    55  52  89 SE6       29.81S
SPENCER        LGT RAIN  56  54  93 S5        29.82F FOG
STORM LAKE *   CLOUDY    55  55 100 CALM      29.84F
$$

IAZ055>058-069>071-079>083-090>094-190500-
   SOUTHWEST IOWA

CITY           SKY/WX    TMP DP  RH WIND       PRES   REMARKS
ATLANTIC *     CLOUDY    57  57 100 CALM      29.82S
AUDUBON *      DRIZZLE   57  54  88 CALM      29.83S
CLARINDA *     FOG       55  55 100 CALM      29.84S VSB 1/4
COUNCIL BLFS * MOCLDY    55  55 100 S5        29.82S
CRESTON *      CLOUDY    57  57 100 S5        29.83S
HARLAN  *      CLOUDY    57  57 100 CALM      29.85S FOG
LAMONI         MOCLDY    59  58  96 S5        29.82F FOG
RED OAK *      MOCLDY    57  57 100 S3        29.82F
SHENANDOAH *   FOG       54  54 100 CALM      29.82F VSB 1/4
$$

IAZ047>049-059>061-072>074-084-190500-
   CENTRAL IOWA

CITY           SKY/WX    TMP DP  RH WIND       PRES   REMARKS
AMES           CLOUDY    59  56  89 E9        29.82F
ANKENY *       MOCLDY    59  59 100 SE6       29.82S
CHARITON *     CLOUDY    57  57 100 SE7       29.82F
DES MOINES     CLOUDY    61  58  90 SE8       29.82S
GRINNELL*      CLOUDY    57  55  94 E10       29.86S
KNOXVILLE *    CLOUDY    59  55  88 E8        29.82S
MARSHALLTOWN   CLOUDY    57  56  96 E12       29.84F
PELLA *        CLOUDY    57  57 100 E6        29.85F
PERRY *        FOG       59  59 100 CALM      29.81F VSB 1
$$

IAZ004>006-015-016-023>025-035-036-190500-
   NORTH CENTRAL IOWA

CITY           SKY/WX    TMP DP  RH WIND       PRES   REMARKS
ALGONA *       CLOUDY    57  57 100 E14       29.82F
CLARION *      CLOUDY    57  57 100 E15       29.82F
ESTHERVILLE    LGT RAIN  56  55  97 SE12      29.81F FOG
FORT DODGE *   CLOUDY    55  54  94 E8        29.82S
MASON CITY     CLOUDY    56  32  40 E15       29.85F
FOREST CITY *  RAIN      54  52  94 E10G22    29.83F
IOWA FALLS *   CLOUDY    57  55  94 E9        29.85F
$$

IAZ007>011-017>019-026>030-037>042-050>054-066-190500-
   NORTHEAST IOWA

CITY           SKY/WX    TMP DP  RH WIND       PRES   REMARKS
CEDAR RAPIDS   CLOUDY    58  57  97 NE7       29.86F
CHARLES CITY * LGT RAIN  57  57 100 E12       29.89F
CLINTON *      MOCLDY    59  37  44 E15       29.94F
DECORAH *      CLOUDY    61  37  41 S6        29.94S
DUBUQUE        CLOUDY    59  37  44 E15       29.92F
MONTICELLO *   CLOUDY    61  46  59 SE9       29.92R
OELWEIN *      DRIZZLE   55  54  94 E7        29.93F
WATERLOO       CLOUDY    58  56  93 E13       29.87F
$$

IAZ064-065-067-068-078-190500-
   EAST CENTRAL IOWA

CITY           SKY/WX    TMP DP  RH WIND       PRES   REMARKS
DAVENPORT      MOCLDY    59  43  55 E13       29.91F
IOWA CITY      CLOUDY    60  57  89 N7        29.87F
MT. PLEASANT * CLOUDY    59  55  88 E8        29.85F
MUSCATINE *    CLEAR     61  55  82 NE7       29.87F
QUAD CITIES    MOCLDY    60  45  57 E12       29.89F
$$

IAZ062-063-075>077-085>089-095>099-190500-
   SOUTHEAST IOWA

CITY           SKY/WX    TMP DP  RH WIND       PRES   REMARKS
BURLINGTON     CLOUDY    65  56  72 NE7       29.85F
FAIRFIELD *    MOCLDY    59  55  88 NE3       29.84F
FORT MADISON * CLEAR     63  57  82 E3        29.86F
KEOKUK *       CLEAR     61  59  94 SE5       29.84F
OSKALOOSA *      N/A     57  55  94 E6        29.85F
CENTERVILLE *  CLEAR     57  57 100 E7        29.85F
OTTUMWA        CLOUDY    59  56  89 E6        29.84F
WASHINGTON *   MOCLDY    61  61 100 NE10      29.85F
$$

ABBREVIATIONS USED IN REMARKS
   TC - TEMPERATURES IN CELSIUS
  WCI - WIND CHILL INDEX
   HX - HEAT INDEX
  VSB - VISIBILITY
$$



USA.gov is the U.S. government's official web portal to all federal, state and local government web resources and services.